[[{"header":{"parameterUnit":"m.s-1","parameterCategory":1,"la1":30.2992,"la2":30.254,"lo1":-89.0895,"lo2":-89.0443,"dy":0.0025,"dx":0.0025,"nx":19,"ny":19,"refTime":"2026-03-10T09:00:00:Z","depth":0,"parameterNumber":2,"parameterNumberName":"U-component_of_WINDS"},"data":[0,0,0,-2.4709,-2.4708,-2.4659,-2.4659,-2.4612,-2.4612,0,0,0,0,0,0,0,0,0,0,0,-2.4734,-2.4734,-2.4709,-2.4708,-2.4659,-2.4659,-2.4612,-2.4612,0,0,0,0,0,0,0,0,0,0,0,-2.4734,-2.4734,-2.4734,-2.4708,-2.4659,-2.4659,-2.4612,-2.4643,0,0,0,0,0,0,0,0,0,0,-2.4687,-2.4722,-2.4734,-2.4734,-2.4708,-2.4659,-2.4659,-2.4644,-2.4641,-2.4641,0,-2.4646,0,-2.4629,-2.461,-2.461,0,0,0,-2.4699,-2.4725,-2.4702,-2.4734,-2.4707,-2.466,-2.4679,-2.4642,-2.4639,-2.4637,-2.4645,-2.4643,-2.4628,-2.461,-2.461,-2.4645,-2.4645,0,0,-2.4702,-2.4731,-2.4705,-2.4701,-2.4711,-2.468,-2.4677,-2.464,-2.465,-2.4645,-2.4642,-2.4627,-2.461,-2.4609,-2.4644,-2.4645,0,0,0,-2.4715,-2.4733,-2.4711,-2.4703,-2.4693,-2.4679,-2.4676,-2.4651,-2.4642,-2.4641,-2.4627,-2.4609,-2.4609,-2.4643,-2.4644,-2.47,0,0,0,-2.4717,-2.4741,-2.4712,-2.473,-2.4694,-2.4672,-2.4688,-2.4644,-2.4639,-2.4627,-2.4609,-2.4609,-2.4643,-2.4644,-2.4698,-2.4721,0,0,0,-2.4734,-2.4743,-2.474,-2.4732,-2.4712,-2.4672,-2.466,-2.4643,-2.4631,-2.461,-2.4609,-2.4642,-2.4644,-2.4695,-2.4717,-2.4738,0,0,0,-2.476,-2.4791,-2.4742,-2.477,-2.4713,-2.4709,-2.466,-2.4655,-2.4644,-2.4609,-2.4643,-2.4644,-2.4694,-2.4714,-2.4735,-2.4759,-2.4773,0,0,-2.4815,-2.4798,-2.4813,-2.4768,-2.478,-2.4714,-2.4733,-2.4694,-2.4665,-2.4653,-2.4653,-2.4698,-2.4716,-2.4737,-2.4842,-2.4853,0,0,0,-2.484,-2.4851,-2.4848,-2.4839,-2.4812,-2.479,-2.4746,-2.4731,-2.4719,-2.4666,-2.4712,-2.4722,-2.4733,-2.4742,-2.4752,-2.4758,-2.4651,-2.4651,-2.4651,-2.4958,-2.492,-2.4941,-2.4898,-2.4891,-2.4846,-2.4835,-2.4808,-2.4771,-2.4783,-2.4778,-2.4846,-2.4859,-2.4866,-2.4873,-2.479,-2.479,-2.479,-2.479,-2.5033,-2.5041,-2.4994,-2.4997,-2.4956,-2.4958,-2.4916,-2.489,-2.4884,-2.4847,-2.4854,-2.4814,-2.4879,-2.4883,-2.4794,-2.4793,-2.4793,-2.4792,-2.4792,-2.5104,-2.5101,-2.5085,-2.5069,-2.5061,-2.5016,-2.5013,-2.4976,-2.4942,-2.495,-2.4939,-2.4938,-2.493,-2.4948,-2.4948,-2.4948,-2.4949,-2.4949,-2.4949,-2.5183,-2.5163,-2.5165,-2.514,-2.513,-2.5112,-2.5067,-2.5056,-2.5033,-2.5006,-2.5006,-2.4967,-2.4894,-2.4875,-2.4952,-2.4952,-2.4951,-2.4951,-2.4951,-2.5268,-2.5243,-2.5248,-2.5238,-2.5205,-2.5198,-2.5153,-2.5132,-2.5117,-2.5117,-2.5077,-2.503,-2.5009,-2.5002,-2.4985,-2.5087,-2.5087,-2.5087,-2.5087,-2.5326,-2.5314,-2.5309,-2.5296,-2.5278,-2.5238,-2.5242,-2.5208,-2.5169,-2.5157,-2.5137,-2.5114,-2.5108,-2.509,-2.5081,-2.5065,-2.5184,-2.5184,-2.5184,-2.5376,-2.536,-2.5371,-2.5334,-2.5305,-2.5281,-2.5284,-2.5268,-2.5218,-2.5187,-2.5146,-2.5142,-2.5103,-2.5093,-2.5058,-2.5044,-2.5014,0,0]},{"header":{"parameterUnit":"m.s-1","parameterCategory":1,"la1":30.2992,"la2":30.254,"lo1":-89.0895,"lo2":-89.0443,"dy":0.0025,"dx":0.0025,"nx":19,"ny":19,"refTime":"2026-03-10T09:00:00:Z","depth":0,"parameterNumber":3,"parameterNumberName":"V-component_of_WINDS"},"data":[0,0,0,2.7666,2.7668,2.7752,2.7753,2.7836,2.7836,0,0,0,0,0,0,0,0,0,0,0,2.7625,2.7625,2.7666,2.7668,2.7752,2.7753,2.7836,2.7836,0,0,0,0,0,0,0,0,0,0,0,2.7625,2.7625,2.7625,2.7668,2.7752,2.7753,2.7836,2.7781,0,0,0,0,0,0,0,0,0,0,2.7704,2.7648,2.7625,2.7625,2.7669,2.7752,2.7753,2.7779,2.7785,2.7787,0,2.7782,0,2.7811,2.784,2.784,0,0,0,2.7681,2.7643,2.7681,2.7625,2.7669,2.7752,2.7718,2.7782,2.7789,2.7794,2.7784,2.7788,2.7812,2.7841,2.7841,2.7811,2.781,0,0,2.7676,2.7631,2.7677,2.7685,2.7668,2.7715,2.772,2.7787,2.7773,2.7784,2.779,2.7813,2.7841,2.7841,2.7811,2.781,0,0,0,2.7654,2.7627,2.7664,2.768,2.7697,2.7717,2.7723,2.777,2.7786,2.7791,2.7814,2.7841,2.7842,2.7812,2.7811,2.7733,0,0,0,2.7652,2.7614,2.7661,2.7634,2.7696,2.7734,2.7704,2.7781,2.779,2.7814,2.7841,2.7843,2.7813,2.7811,2.7737,2.7703,0,0,0,2.7625,2.7611,2.7618,2.7632,2.7666,2.7734,2.7755,2.7784,2.7804,2.784,2.7843,2.7814,2.7812,2.774,2.7709,2.7685,0,0,0,2.7583,2.7544,2.7616,2.7582,2.7665,2.7684,2.7755,2.7771,2.7793,2.7842,2.7813,2.7811,2.7741,2.7713,2.7688,2.7657,2.7639,0,0,2.7509,2.7534,2.7518,2.7584,2.7579,2.7675,2.766,2.7722,2.7766,2.7794,2.7794,2.7735,2.7709,2.7685,2.7552,2.7538,0,0,0,2.7479,2.7468,2.7476,2.7495,2.7542,2.7582,2.7652,2.7676,2.7702,2.7771,2.772,2.7706,2.7694,2.7682,2.7669,2.7664,2.7803,2.7803,2.7803,2.731,2.7371,2.735,2.7421,2.7439,2.7514,2.7535,2.7581,2.7635,2.7622,2.7631,2.7543,2.7526,2.7518,2.7511,2.7618,2.7618,2.7617,2.7617,2.721,2.7204,2.728,2.7287,2.7353,2.736,2.7432,2.7471,2.7489,2.754,2.7532,2.7585,2.75,2.7497,2.7612,2.7613,2.7613,2.7614,2.7614,2.7107,2.7116,2.7146,2.7184,2.7206,2.728,2.7295,2.7354,2.7409,2.7401,2.742,2.7421,2.7433,2.7406,2.7405,2.7405,2.7405,2.7405,2.7404,2.699,2.7027,2.7032,2.7082,2.7105,2.7142,2.7219,2.7243,2.7286,2.7328,2.7328,2.7386,2.7479,2.7503,2.74,2.7401,2.7401,2.7402,2.7402,2.6869,2.6907,2.6914,2.6937,2.7003,2.7024,2.7099,2.7145,2.7174,2.718,2.7241,2.7299,2.7328,2.7339,2.7359,2.7225,2.7225,2.7225,2.7225,2.6785,2.6806,2.6829,2.6862,2.6901,2.6971,2.6982,2.7044,2.7113,2.7136,2.7164,2.7195,2.7202,2.7228,2.724,2.726,2.7105,2.7104,2.7104,2.6716,2.6744,2.674,2.6808,2.6865,2.6914,2.6928,2.6965,2.7052,2.7101,2.7156,2.7161,2.7212,2.7225,2.7275,2.7293,2.7331,0,0]}]]